Lyndonville, VT

5:04 PM EST on November 16, 2019 (GMT -0500)
Lyndonville

Weather History for KCDA - August, 2019

Change the Weather History Date:

Thursday, August 22, 2019

  Actual Average (K1V4) Record (K1V4)
Temperature  
Mean Temperature 67 °F 67 °F  
Max Temperature 78 °F 78 °F 85 °F (2013)
Min Temperature 57 °F 56 °F 45 °F (2007)
Degree Days  
Heating Degree Days 0 1  
Month to date heating degree days 21  
Since 1 June heating degree days 108  
Since 1 July heating degree days 36  
Cooling Degree Days 2 3  
Month to date cooling degree days 95  
Year to date cooling degree days 372  
Since 1 June cooling degree days 354  
Growing Degree Days 17 (Base 50)    
Moisture  
Dew Point 61 °F    
Average Humidity 80    
Maximum Humidity 98    
Minimum Humidity 48    
Precipitation  
Precipitation 0.00 in 0.12 in 0.69 in (2010)
Month to date precipitation 3.26  
Year to date precipitation 24.80  
Sea Level Pressure  
Sea Level Pressure 29.87 in    
Wind  
Wind Speed 4 mph (South)    
Max Wind Speed 15 mph    
Max Gust Speed 26 mph    
Visibility 7 miles    
Events Fog , Rain    
T = Trace of Precipitation, MM = Missing Value Source: NWS Daily Summary

Daily Weather History Graph

Daily Weather History Graph

Search for Another Location

Airport or City:

Astronomy

Aug. 22, 2019 Rise Set
Actual Time 5:58 AM EDT 7:42 PM EDT
Civil Twilight 5:27 AM EDT 8:13 PM EDT
Nautical Twilight 4:49 AM EDT 8:50 PM EDT
Astronomical Twilight 4:09 AM EDT 9:31 PM EDT
Moon 11:14 PM EDT (8/22) 12:46 PM EDT (8/22)
Length of Visible Light 14h 45m
Length of Day
13h 43m
Waning Gibbous, 60% of the Moon is Illuminated
Aug 22
Waning Gibbous
Aug 23
Last Quarter
Aug 30
New
Sep 5
First Quarter
Sep 14
Full

Hourly Weather History & Observations

Time (EDT) Temp. Dew Point Humidity Pressure Visibility Wind Dir Wind Speed Gust Speed Precip Events Conditions
12:16 AM 65.3 °F 64.4 °F 97% 29.86 in 1.8 mi ESE 3.5 mph - N/A   Overcast
12:36 AM 65.3 °F 64.4 °F 97% 29.86 in 2.5 mi ESE 4.6 mph - N/A   Overcast
12:56 AM 64.9 °F 64.4 °F 98% 29.85 in 1.0 mi ESE 3.5 mph - N/A   Overcast
1:16 AM 65.1 °F 64.4 °F 98% 29.86 in 3.0 mi SSE 3.5 mph - N/A   Overcast
1:36 AM 64.9 °F 64.4 °F 98% 29.86 in 4.0 mi Calm Calm - N/A   Overcast
1:56 AM 64.9 °F 64.4 °F 98% 29.85 in 7.0 mi Calm Calm - N/A   Overcast
2:16 AM 64.8 °F 64.0 °F 98% 29.85 in 10.0 mi SSE 3.5 mph - N/A   Overcast
2:36 AM 64.8 °F 64.2 °F 98% 29.85 in 5.0 mi SE 3.5 mph - N/A   Overcast
2:56 AM 64.6 °F 63.7 °F 97% 29.83 in 10.0 mi ESE 3.5 mph - N/A   Overcast
3:16 AM 64.8 °F 63.7 °F 96% 29.84 in 10.0 mi Calm Calm - N/A   Overcast
3:36 AM 64.9 °F 64.0 °F 97% 29.86 in 0.5 mi Calm Calm - N/A Fog Fog
3:56 AM 64.8 °F 63.9 °F 97% 29.85 in 0.2 mi SE 5.8 mph - N/A Rain Light Rain
4:16 AM 64.8 °F 63.9 °F 97% 29.85 in 0.5 mi Calm Calm - N/A Fog Fog
4:36 AM 64.8 °F 63.9 °F 97% 29.85 in 2.5 mi SSE 4.6 mph - N/A   Overcast
4:56 AM 64.6 °F 63.9 °F 98% 29.85 in 1.5 mi SSE 3.5 mph - N/A   Overcast
5:16 AM 64.4 °F 63.5 °F 97% 29.84 in 4.0 mi Calm Calm - N/A   Overcast
5:36 AM 64.4 °F 63.5 °F 97% 29.84 in 3.0 mi Calm Calm - N/A   Overcast
5:56 AM 64.4 °F 63.7 °F 98% 29.84 in 2.5 mi SE 4.6 mph - N/A   Overcast
6:16 AM 64.4 °F 63.5 °F 97% 29.84 in 4.0 mi SE 4.6 mph - N/A   Overcast
6:36 AM 64.4 °F 63.7 °F 98% 29.84 in 0.8 mi SE 4.6 mph - N/A   Overcast
6:56 AM 64.6 °F 63.7 °F 97% 29.85 in 0.2 mi SE 3.5 mph - N/A Fog Fog
7:16 AM 64.4 °F 63.5 °F 97% 29.85 in 0.5 mi SE 3.5 mph - N/A Fog Fog
7:35 AM 64.4 °F 63.5 °F 97% 29.86 in 0.2 mi Calm Calm - N/A Fog Fog
7:56 AM 64.6 °F 63.9 °F 98% 29.87 in 0.2 mi SSE 4.6 mph - N/A Fog Fog
8:16 AM 64.8 °F 63.9 °F 97% 29.87 in 0.2 mi SSE 4.6 mph - N/A Fog Fog
8:36 AM 64.9 °F 64.4 °F 98% 29.87 in 0.2 mi SSE 5.8 mph - N/A Fog Fog
8:56 AM 65.3 °F 64.4 °F 97% 29.88 in 2.0 mi SE 6.9 mph - N/A   Overcast
9:16 AM 65.5 °F 64.6 °F 97% 29.86 in 4.0 mi SE 8.1 mph - N/A   Overcast
9:36 AM 66.2 °F 65.3 °F 97% 29.87 in 5.0 mi South 3.5 mph - N/A   Overcast
9:56 AM 67.1 °F 66.2 °F 97% 29.88 in 10.0 mi SSE 4.6 mph - N/A   Overcast
10:16 AM 69.4 °F 66.9 °F 92% 29.84 in 10.0 mi South 3.5 mph - N/A   Overcast
10:37 AM 69.8 °F 66.9 °F 91% - 10.0 mi South 4.6 mph - N/A   Overcast
10:56 AM 70.2 °F 66.7 °F 89% 29.86 in 10.0 mi SE 6.9 mph - N/A   Mostly Cloudy
11:16 AM 73.6 °F 68.2 °F 83% 29.86 in 10.0 mi SE 6.9 mph - N/A   Scattered Clouds
11:36 AM 73.0 °F 67.5 °F 83% 29.85 in 10.0 mi East 5.8 mph - N/A   Mostly Cloudy
11:56 AM 75.0 °F 68.9 °F 81% 29.84 in 10.0 mi South 5.8 mph - N/A   Mostly Cloudy
12:15 PM 76.8 °F 67.5 °F 73% 29.84 in 10.0 mi Calm Calm - N/A   Scattered Clouds
12:36 PM 74.1 °F 67.1 °F 79% 29.84 in 10.0 mi WSW 5.8 mph - N/A   Mostly Cloudy
12:56 PM 74.7 °F 66.4 °F 75% 29.85 in 10.0 mi WSW 8.1 mph - N/A   Overcast
1:16 PM 76.6 °F 66.7 °F 71% 29.84 in 10.0 mi WSW 9.2 mph - N/A   Scattered Clouds
1:35 PM 74.8 °F 61.2 °F 62% 29.84 in 10.0 mi WSW 11.5 mph 26.5 mph N/A   Scattered Clouds
1:55 PM 75.6 °F 60.8 °F 60% 29.84 in 10.0 mi SW 10.4 mph 21.9 mph N/A   Scattered Clouds
2:20 PM 76.1 °F 63.0 °F 64% 29.85 in 10.0 mi WSW 11.5 mph 19.6 mph N/A   Clear
2:35 PM 76.6 °F 61.7 °F 60% 29.85 in 10.0 mi SW 11.5 mph 18.4 mph N/A   Clear
2:59 PM 75.0 °F 58.3 °F 56% 29.85 in 10.0 mi West 12.7 mph 18.4 mph N/A   Clear
3:15 PM 74.1 °F 55.9 °F 53% 29.86 in 10.0 mi WSW 11.5 mph 24.2 mph N/A   Scattered Clouds
3:38 PM 73.2 °F 54.1 °F 51% 29.86 in 10.0 mi WSW 11.5 mph 20.7 mph N/A   Scattered Clouds
3:56 PM 73.0 °F 53.4 °F 50% 29.87 in 10.0 mi WSW 9.2 mph 17.3 mph N/A   Clear
4:18 PM 73.4 °F 55.0 °F 52% 29.87 in 10.0 mi WSW 15.0 mph 19.6 mph N/A   Clear
4:35 PM 73.0 °F 56.1 °F 55% 29.87 in 10.0 mi SSW 10.4 mph - N/A   Clear
4:58 PM 72.7 °F 56.3 °F 56% 29.87 in 10.0 mi WSW 9.2 mph - N/A   Clear
5:16 PM 71.4 °F 55.0 °F 56% 29.87 in 10.0 mi WSW 11.5 mph 17.3 mph N/A   Clear
5:39 PM 72.9 °F 54.0 °F 51% 29.88 in 10.0 mi WSW 10.4 mph - N/A   Clear
5:56 PM 74.8 °F 53.8 °F 48% 29.87 in 10.0 mi West 9.2 mph - N/A   Clear
6:18 PM 72.3 °F 53.1 °F 51% 29.87 in 10.0 mi WSW 8.1 mph 16.1 mph N/A   Clear
6:35 PM 70.9 °F 52.9 °F 53% 29.87 in 10.0 mi West 5.8 mph - N/A   Clear
6:59 PM 70.0 °F 53.8 °F 56% 29.87 in 10.0 mi WSW 3.5 mph - N/A   Clear
7:15 PM 68.9 °F 54.1 °F 59% 29.88 in 10.0 mi Calm Calm - N/A   Clear
7:38 PM 68.0 °F 54.0 °F 61% 29.89 in 10.0 mi Calm Calm - N/A   Clear
7:56 PM 66.2 °F 54.9 °F 67% 29.89 in 10.0 mi Calm Calm - N/A   Clear
8:18 PM 65.7 °F 54.3 °F 67% 29.89 in 10.0 mi WNW 3.5 mph - N/A   Clear
8:36 PM 66.2 °F 54.3 °F 65% 29.90 in 10.0 mi Calm Calm - N/A   Clear
8:57 PM 64.6 °F 54.9 °F 71% 29.91 in 10.0 mi West 6.9 mph - N/A   Clear
9:16 PM 63.7 °F 54.7 °F 72% 29.91 in 10.0 mi West 4.6 mph - N/A   Clear
9:37 PM 61.3 °F 55.4 °F 81% 29.92 in 10.0 mi Calm Calm - N/A   Clear
9:56 PM 62.6 °F 54.9 °F 76% 29.92 in 10.0 mi West 3.5 mph - N/A   Clear
10:18 PM 62.6 °F 54.9 °F 76% 29.92 in 10.0 mi Calm Calm - N/A   Clear
10:36 PM 62.4 °F 55.4 °F 78% 29.92 in 10.0 mi Calm Calm - N/A   Clear
10:57 PM 61.9 °F 55.0 °F 78% 29.92 in 10.0 mi Calm Calm - N/A   Clear
11:16 PM 58.3 °F 55.0 °F 89% 29.93 in 10.0 mi Calm Calm - N/A   Clear
11:38 PM 58.5 °F 55.6 °F 90% 29.93 in 10.0 mi Calm Calm - N/A   Clear
11:56 PM 57.4 °F 55.0 °F 92% 29.93 in 10.0 mi Calm Calm - N/A   Clear